[[{"header":{"parameterUnit":"m.s-1","parameterCategory":1,"la1":30.2991,"la2":30.254,"lo1":-89.0895,"lo2":-89.0444,"dy":0.0017,"dx":0.0017,"nx":28,"ny":28,"refTime":"2025-07-25T09:00:00:Z","depth":0,"parameterNumber":2,"parameterNumberName":"U-component_of_WINDS"},"data":[0,0,0,0,0,0,0,0,0,0,0,0,0,0,0,0,0,0,0,0,0,0,0,0,0,0,0,0,0,0,0,0,0,0,0,0,0,0,0,0,0,0,0,0,0,0,0,0,0,0,0,0,0,0,0,0,0,0,-2.3044,-2.3044,0,-2.2998,-2.2998,-2.2997,-2.2933,-2.2932,-2.2931,-2.293,-2.2881,-2.288,-2.288,0,0,0,0,0,0,0,0,0,0,0,0,0,-2.3076,-2.3076,-2.3044,-2.3044,-2.3043,-2.2998,-2.2998,-2.2997,-2.2933,-2.2932,-2.2931,-2.293,-2.2881,-2.288,-2.288,0,0,0,0,0,0,0,0,0,0,0,0,0,-2.305,-2.3076,-2.3045,-2.3006,-2.3002,-2.2999,-2.2998,-2.2997,-2.2934,-2.2932,-2.293,-2.2929,-2.2881,-2.2881,-2.288,-2.291,0,0,-2.2879,-2.2878,0,0,0,0,0,0,0,0,-2.3051,-2.3049,-2.3012,-2.3009,-2.3004,-2.297,-2.2991,-2.2968,-2.2934,-2.296,-2.293,-2.2928,-2.2912,-2.2909,-2.2903,-2.2907,-2.2905,-2.2879,-2.2878,-2.2878,-2.2878,0,0,0,0,0,0,0,-2.3053,-2.305,-2.3026,-2.3012,-2.3007,-2.2991,-2.2985,-2.2986,-2.2945,-2.2957,-2.2953,-2.2948,-2.2909,-2.2904,-2.2902,-2.2905,-2.2879,-2.2878,-2.2878,-2.2878,-2.2932,-2.2934,0,0,0,0,0,0,-2.3061,-2.3052,-2.3028,-2.3025,-2.3024,-2.2992,-2.2985,-2.2983,-2.2945,-2.2938,-2.295,-2.2945,-2.2906,-2.2902,-2.29,-2.2933,-2.2878,-2.2878,-2.2877,-2.2931,-2.2933,-2.2935,0,0,0,0,0,0,-2.3062,-2.3059,-2.3029,-2.3037,-2.3032,-2.2993,-2.299,-2.2983,-2.2977,-2.2939,-2.2931,-2.2952,-2.2904,-2.29,-2.2908,-2.293,-2.2878,-2.2877,-2.2929,-2.2931,-2.2934,-2.2999,0,0,0,0,0,0,-2.3063,-2.306,-2.3071,-2.3038,-2.3032,-2.3039,-2.2992,-2.2983,-2.2977,-2.2971,-2.2939,-2.2933,-2.2903,-2.2909,-2.2908,-2.2929,-2.2877,-2.2926,-2.293,-2.2933,-2.2995,-2.3003,-2.3011,0,0,0,0,0,-2.3065,-2.309,-2.3072,-2.3069,-2.3045,-2.304,-2.3037,-2.3003,-2.2979,-2.299,-2.2966,-2.2934,-2.2928,-2.2911,-2.2908,-2.2929,-2.2925,-2.2929,-2.2933,-2.2991,-2.3002,-2.3011,0,0,0,0,0,0,-2.3126,-2.3085,-2.3064,-2.308,-2.3065,-2.303,-2.3042,-2.3015,-2.3005,-2.2999,-2.2957,-2.295,-2.2964,-2.2947,-2.2928,-2.2957,-2.2922,-2.2925,-2.2967,-2.2977,-2.2985,-2.2988,-2.2876,0,0,0,0,0,-2.3142,-2.3142,-2.3106,-2.3124,-2.3117,-2.3081,-2.3078,-2.3053,-2.3035,-2.3027,-2.3003,-2.2986,-2.2981,-2.2978,-2.2971,-2.2992,-2.2985,-2.3006,-2.3014,-2.3021,-2.3024,-2.3036,-2.3045,-2.2947,-2.2947,-2.2947,0,0,-2.3173,-2.3151,-2.3154,-2.3136,-2.312,-2.3121,-2.3076,-2.3078,-2.3079,-2.3027,-2.3034,-2.3016,-2.2994,-2.3009,-2.3015,-2.2996,-2.305,-2.3026,-2.3032,-2.3031,-2.3041,-2.305,-2.3058,-2.295,-2.2949,-2.2949,0,0,-2.3232,-2.3215,-2.3228,-2.3215,-2.3193,-2.3169,-2.3173,-2.3142,-2.3129,-2.3135,-2.3097,-2.3097,-2.3088,-2.3074,-2.3066,-2.3123,-2.3093,-2.3121,-2.3164,-2.3175,-2.3183,-2.319,-2.321,-2.3218,-2.3125,-2.3125,-2.3125,0,-2.3274,-2.3274,-2.3239,-2.3244,-2.3238,-2.3193,-2.3206,-2.3194,-2.3171,-2.3168,-2.3147,-2.3137,-2.3119,-2.3131,-2.3145,-2.314,-2.3143,-2.3124,-2.3185,-2.3191,-2.3197,-2.3216,-2.3224,-2.3129,-2.3128,-2.3128,-2.3128,0,-2.3328,-2.3329,-2.3342,-2.3322,-2.3317,-2.3327,-2.3293,-2.3292,-2.3268,-2.3247,-2.3254,-2.3232,-2.322,-2.3221,-2.3197,-2.323,-2.3219,-2.3193,-2.3156,-2.321,-2.3228,-2.3235,-2.3134,-2.3133,-2.3132,-2.3131,0,0,-2.3422,-2.3384,-2.3389,-2.338,-2.3354,-2.3354,-2.3362,-2.3351,-2.3352,-2.3338,-2.3344,-2.3339,-2.3314,-2.3305,-2.328,-2.329,-2.3337,-2.3262,-2.3261,-2.3277,-2.3373,-2.3394,-2.3403,-2.3318,-2.3319,-2.332,-2.3376,0,-2.3475,-2.3487,-2.3456,-2.3476,-2.3477,-2.3435,-2.3442,-2.3427,-2.3408,-2.3406,-2.3384,-2.3382,-2.335,-2.3344,-2.3353,-2.333,-2.3356,-2.3326,-2.3323,-2.3324,-2.333,-2.3412,-2.3433,-2.3486,-2.3382,-2.3383,-2.3384,0,-2.3539,-2.353,-2.355,-2.3524,-2.3523,-2.353,-2.3519,-2.3517,-2.3499,-2.3485,-2.3476,-2.3447,-2.3454,-2.342,-2.3428,-2.3408,-2.3406,-2.3395,-2.3396,-2.3394,-2.3357,-2.3412,-2.3501,-2.351,-2.3394,-2.3393,-2.3393,0,-2.3607,-2.3599,-2.361,-2.3604,-2.3573,-2.358,-2.3567,-2.3548,-2.3544,-2.3534,-2.3531,-2.3522,-2.3517,-2.3511,-2.3481,-2.3459,-2.3493,-2.3456,-2.3481,-2.3482,-2.349,-2.349,-2.358,-2.3489,-2.3488,-2.3488,-2.3488,0,-2.3669,-2.3683,-2.3641,-2.3647,-2.3662,-2.3627,-2.3643,-2.3626,-2.361,-2.3613,-2.3576,-2.358,-2.3539,-2.3539,-2.3515,-2.3527,-2.3524,-2.3513,-2.3506,-2.3516,-2.3518,-2.3514,-2.3509,-2.349,-2.349,-2.3489,-2.3489,0,-2.3747,-2.3719,-2.3729,-2.37,-2.3693,-2.3705,-2.368,-2.3686,-2.3665,-2.367,-2.3669,-2.3636,-2.3634,-2.3603,-2.3594,-2.3578,-2.3599,-2.3585,-2.3605,-2.3601,-2.3628,-2.3626,-2.3719,-2.373,-2.3631,-2.3632,-2.3633,0,-2.3789,-2.3799,-2.3772,-2.3772,-2.3762,-2.3762,-2.3758,-2.3724,-2.3722,-2.3704,-2.3712,-2.3707,-2.3701,-2.3699,-2.3675,-2.3668,-2.3654,-2.3687,-2.3652,-2.3663,-2.3655,-2.3655,-2.3656,-2.3694,-2.3695,-2.3696,-2.3697,0,-2.3867,-2.3853,-2.3849,-2.3842,-2.3839,-2.3831,-2.382,-2.3822,-2.3785,-2.3785,-2.3782,-2.3778,-2.377,-2.3765,-2.3755,-2.3741,-2.3714,-2.3709,-2.3714,-2.3724,-2.3735,-2.373,-2.3625,-2.3706,-2.3705,-2.3705,-2.3704,-2.3704,-2.3928,-2.3936,-2.3918,-2.3916,-2.3905,-2.3897,-2.3901,-2.3881,-2.3879,-2.387,-2.385,-2.3851,-2.3835,-2.3817,-2.3807,-2.3808,-2.3791,-2.3799,-2.3801,-2.3803,-2.3809,-2.3736,-2.3806,-2.3805,-2.3805,-2.3805,-2.3805,0,-2.4005,-2.3992,-2.399,-2.3977,-2.3976,-2.3951,-2.3938,-2.3939,-2.3941,-2.3928,-2.3923,-2.3922,-2.3918,-2.3894,-2.3888,-2.3893,-2.388,-2.3892,-2.3892,-2.3889,-2.3824,-2.382,-2.3903,-2.3903,-2.3903,-2.3903,-2.3903,-2.3903,-2.4044,-2.4056,-2.404,-2.4047,-2.4033,-2.4035,-2.403,-2.4023,-2.4012,-2.4012,-2.401,-2.3994,-2.3977,-2.397,-2.3965,-2.3958,-2.3958,-2.3975,-2.3964,-2.3903,-2.3894,-2.3885,-2.3881,-2.3975,-2.3975,-2.4029,-2.4029,-2.403]},{"header":{"parameterUnit":"m.s-1","parameterCategory":1,"la1":30.2991,"la2":30.254,"lo1":-89.0895,"lo2":-89.0444,"dy":0.0017,"dx":0.0017,"nx":28,"ny":28,"refTime":"2025-07-25T09:00:00:Z","depth":0,"parameterNumber":3,"parameterNumberName":"V-component_of_WINDS"},"data":[0,0,0,0,0,0,0,0,0,0,0,0,0,0,0,0,0,0,0,0,0,0,0,0,0,0,0,0,0,0,0,0,0,0,0,0,0,0,0,0,0,0,0,0,0,0,0,0,0,0,0,0,0,0,0,0,0,0,5.4517,5.4517,0,5.4562,5.4562,5.4563,5.4549,5.4548,5.4547,5.4547,5.459,5.4592,5.4594,0,0,0,0,0,0,0,0,0,0,0,0,0,5.4417,5.4419,5.4516,5.4517,5.4518,5.4562,5.4562,5.4563,5.455,5.4548,5.4547,5.4546,5.4589,5.4592,5.4594,0,0,0,0,0,0,0,0,0,0,0,0,0,5.4461,5.442,5.4516,5.4516,5.4517,5.4561,5.4562,5.4563,5.455,5.4548,5.4547,5.4546,5.4588,5.4591,5.4594,5.4641,0,0,5.4604,5.4605,0,0,0,0,0,0,0,0,5.4459,5.4465,5.4516,5.4516,5.4517,5.4549,5.4543,5.4589,5.455,5.4537,5.4547,5.4545,5.4577,5.4581,5.4592,5.4643,5.4645,5.4604,5.4606,5.4607,5.4608,0,0,0,0,0,0,0,5.4456,5.4463,5.4534,5.4517,5.4517,5.4514,5.4518,5.4552,5.4564,5.4538,5.4537,5.4543,5.4577,5.4589,5.4593,5.4645,5.4604,5.4606,5.4608,5.4609,5.4738,5.4739,0,0,0,0,0,0,5.4452,5.446,5.4533,5.4536,5.4484,5.4516,5.4522,5.454,5.4564,5.4566,5.4544,5.4542,5.4585,5.459,5.4595,5.4652,5.4607,5.461,5.4611,5.4736,5.4738,5.474,0,0,0,0,0,0,5.445,5.4459,5.4531,5.4498,5.4507,5.452,5.454,5.4541,5.4554,5.4568,5.457,5.4555,5.4584,5.459,5.463,5.4653,5.4611,5.4614,5.4734,5.4737,5.4739,5.4765,0,0,0,0,0,0,5.4448,5.4458,5.4476,5.4498,5.4509,5.4566,5.4541,5.4543,5.4559,5.4557,5.4579,5.4581,5.4583,5.4625,5.4633,5.4656,5.4616,5.4732,5.4735,5.4738,5.4762,5.4768,5.4773,0,0,0,0,0,5.4444,5.4481,5.4477,5.4486,5.4531,5.4567,5.4573,5.4576,5.4561,5.4579,5.4589,5.458,5.4649,5.463,5.4638,5.4662,5.4731,5.4734,5.4738,5.476,5.4767,5.4773,0,0,0,0,0,0,5.446,5.4484,5.448,5.4525,5.4545,5.4565,5.4588,5.4583,5.4606,5.4603,5.4605,5.461,5.4651,5.4661,5.4638,5.4709,5.4688,5.4693,5.4702,5.4708,5.4714,5.471,5.4619,0,0,0,0,0,5.4469,5.4497,5.4516,5.4554,5.4564,5.4574,5.459,5.4591,5.4611,5.4618,5.4631,5.465,5.4676,5.4693,5.4717,5.4764,5.4769,5.4785,5.479,5.4795,5.4799,5.4826,5.4833,5.4751,5.4751,5.4751,0,0,5.4487,5.4504,5.4521,5.4558,5.4573,5.4601,5.4581,5.4612,5.4633,5.4623,5.4661,5.4671,5.4692,5.4736,5.4756,5.4745,5.4823,5.4799,5.4803,5.4805,5.483,5.4838,5.4845,5.4754,5.4753,5.4753,0,0,5.4535,5.4551,5.4585,5.4601,5.4624,5.4631,5.464,5.4661,5.4668,5.4707,5.4701,5.4725,5.477,5.4786,5.4799,5.4856,5.4849,5.4864,5.4892,5.4918,5.4924,5.493,5.4951,5.4958,5.4868,5.4868,5.4869,0,5.4555,5.4598,5.4602,5.4634,5.4651,5.4645,5.4679,5.4694,5.4724,5.4736,5.4724,5.4781,5.4794,5.4842,5.4856,5.4868,5.4877,5.4861,5.4923,5.4929,5.4934,5.4954,5.4962,5.487,5.487,5.487,5.487,0,5.4621,5.4652,5.4676,5.4707,5.4727,5.4759,5.4768,5.4787,5.4787,5.4796,5.4836,5.4853,5.4881,5.4893,5.4892,5.4941,5.4934,5.4923,5.4901,5.4944,5.4963,5.497,5.4873,5.4872,5.4871,5.4871,0,0,5.4679,5.4714,5.4723,5.4737,5.4764,5.4787,5.482,5.485,5.4866,5.4887,5.4915,5.4954,5.4945,5.4961,5.4962,5.4985,5.5029,5.4971,5.4971,5.4981,5.5085,5.5094,5.5102,5.5025,5.5027,5.5028,5.5084,0,5.473,5.4789,5.4795,5.4847,5.4876,5.4871,5.49,5.492,5.4929,5.4954,5.4963,5.4991,5.4976,5.4986,5.5008,5.5019,5.505,5.5015,5.5051,5.5052,5.5046,5.5112,5.5121,5.5172,5.5091,5.5092,5.5093,0,5.4797,5.4822,5.4878,5.4902,5.4914,5.494,5.4969,5.4993,5.5015,5.502,5.5039,5.5037,5.5072,5.5049,5.5096,5.5072,5.5088,5.5095,5.5097,5.5101,5.5075,5.5117,5.5189,5.5197,5.5105,5.5104,5.5103,0,5.4834,5.4882,5.4922,5.4935,5.4964,5.4982,5.4995,5.5016,5.5034,5.5058,5.507,5.5098,5.5113,5.5134,5.514,5.5123,5.5188,5.5166,5.5193,5.5193,5.5206,5.5205,5.5282,5.5216,5.5216,5.5216,5.5216,0,5.489,5.4925,5.494,5.4964,5.5003,5.5009,5.5048,5.5059,5.5078,5.5105,5.5103,5.5128,5.5134,5.5161,5.5166,5.5205,5.5212,5.5217,5.5218,5.5217,5.5216,5.5227,5.5223,5.5218,5.5217,5.5217,5.5217,0,5.4938,5.4949,5.4993,5.5018,5.5025,5.5053,5.5073,5.5097,5.5107,5.5141,5.5149,5.5163,5.5195,5.5204,5.524,5.5244,5.529,5.5287,5.5283,5.5283,5.531,5.5307,5.5396,5.5408,5.5334,5.5334,5.5335,0,5.4973,5.5,5.5028,5.5047,5.5061,5.509,5.5109,5.5116,5.5136,5.5164,5.5185,5.5216,5.5241,5.5291,5.5305,5.5334,5.5332,5.5361,5.5336,5.5335,5.5333,5.5331,5.5335,5.5365,5.5366,5.5367,5.5367,0,5.5034,5.5039,5.5067,5.5097,5.512,5.5144,5.5166,5.5181,5.5192,5.5214,5.5247,5.5267,5.5306,5.5337,5.5366,5.5379,5.5375,5.5375,5.5383,5.5383,5.5379,5.5382,5.5296,5.5373,5.5372,5.5372,5.5372,5.5371,5.5077,5.5101,5.5126,5.5157,5.5175,5.5197,5.5221,5.5235,5.5262,5.5295,5.5298,5.5334,5.5356,5.5396,5.541,5.5438,5.5429,5.5441,5.5444,5.5446,5.5449,5.5375,5.5443,5.5443,5.5443,5.5443,5.5443,0,5.5139,5.5155,5.5183,5.5217,5.5241,5.5237,5.5262,5.5283,5.5315,5.5337,5.5363,5.5401,5.5432,5.5448,5.5479,5.5498,5.5497,5.5506,5.5505,5.5508,5.5455,5.5445,5.5506,5.5506,5.5506,5.5506,5.5506,5.5506,5.5174,5.5215,5.5223,5.5274,5.5289,5.5325,5.534,5.536,5.5378,5.5421,5.5447,5.5458,5.5479,5.5511,5.5539,5.5543,5.5555,5.5565,5.5568,5.5518,5.5511,5.5505,5.5496,5.5567,5.5567,5.5619,5.5619,5.562]}]]